Regional Weather Roundup
Issued by NWS

Home | Current Version | Previous Version | Graphics & Text | Print | Product List | Glossary On
Versions: 1 2 3 4 5 6 7 8 9 10 11 12 13 14 15 16 17 18 19 20 21 22 23 24 25 26 27 28 29 30 31 32 33 34 35 36 37 38 39 40 41 42 43 44 45 46 47 48 49 50
000
ASUS43 KBIS 202202
RWRND

NORTH DAKOTA REGIONAL WEATHER ROUNDUP
NATIONAL WEATHER SERVICE BISMARCK ND
400 PM CST TUE FEB 20 2018

NOTE: "FAIR" INDICATES FEW OR NO CLOUDS BELOW 12,000 FEET WITH NO
SIGNIFICANT WEATHER AND/OR OBSTRUCTIONS TO VISIBILITY.


NDZ001>003-009>011-017-202300-
NORTHWEST NORTH DAKOTA

CITY           SKY/WX    TMP DP  RH WIND       PRES   REMARKS
WILLISTON      FAIR       5  -4  66 W12G22    30.12R WCI -11
MINOT          FAIR      10   0  63 W18G25    30.07S WCI  -8
MINOT AFB      FAIR      10   0  64 W18       30.06R WCI  -9
$$

NDZ018>021-031>035-040>046-202300-
SOUTHWEST NORTH DAKOTA

CITY           SKY/WX    TMP DP  RH WIND       PRES   REMARKS
BISMARCK       FAIR      12  -1  56 W17       30.16R WCI  -5
DICKINSON      FAIR       5  -3  69 W23       30.06R WCI -17
GARRISON         N/A      8  -2  63 W16       30.10R WCI -10
HETTINGER ARPT FAIR       2  -5  72 W18       30.12R WCI -19
$$

NDZ004>008-012>016-024-026-027-054-202300-
NORTHEAST NORTH DAKOTA

CITY           SKY/WX    TMP DP  RH WIND       PRES   REMARKS
GRAND FORKS    FAIR      12   1  61 W16       30.13R WCI  -5
GRND FRKS AFB  FAIR      11  -1  57 NW9       30.12R WCI  -2
DEVILS LAKE    FAIR       7   0  73 W15       30.09R WCI -10
$$

NDZ022-023-025-028>030-036>039-047>053-202300-
SOUTHEAST NORTH DAKOTA

CITY           SKY/WX    TMP DP  RH WIND       PRES   REMARKS
FARGO          PTSUNNY   12   3  67 NW14      30.16R WCI  -3
JAMESTOWN      FAIR      11   0  61 W15       30.12R WCI  -5
$$




USA.gov is the U.S. government's official web portal to all federal, state and local government web resources and services.